BAW173A EGLL-KJFK

Flight info

Callsign BAW173A
Flight time N/A
Altitude 36000
Route ULTIB T420 TNT UL28 PENIL M144 BAGSO DCT NEBIN/M083F370 NATE BUDAR/N0481F380 N446A MIILS DCT ENE PARCH4
Aircraft B77W/H-SDE1E3FGHIJ3J4J5J6M1M2P2RWXYZ/LB1D1

Departure

Time N/A
Airport London Heathrow Airport (EGLL)

Arrival

Time 2026-05-09 18:03
Airport John F. Kennedy International Airport (KJFK)
Time Latitude Longitude Altitude Speed Heading
2026-05-09 17:30 42.27186 -71.17209 38010 ft 436 kts 207°
2026-05-09 17:30 42.21457 -71.19929 37995 ft 437 kts 207°
2026-05-09 17:31 42.15716 -71.22643 37991 ft 437 kts 207°
2026-05-09 17:32 42.01379 -71.29405 37990 ft 436 kts 207°
2026-05-09 17:33 41.95661 -71.32095 37999 ft 435 kts 207°
2026-05-09 17:33 41.89956 -71.34769 37998 ft 433 kts 207°
2026-05-09 17:34 41.84266 -71.37435 38000 ft 432 kts 207°
2026-05-09 17:35 41.68422 -71.47303 38016 ft 408 kts 227°
2026-05-09 17:35 41.66265 -71.49786 38015 ft 410 kts 226°
2026-05-09 17:36 41.61895 -71.54728 38007 ft 414 kts 226°
2026-05-09 17:36 41.57460 -71.59680 37999 ft 416 kts 226°
2026-05-09 17:37 41.53022 -71.64610 37996 ft 413 kts 226°
2026-05-09 17:37 41.48685 -71.69414 37556 ft 401 kts 226°
2026-05-09 17:38 41.46544 -71.71786 37021 ft 398 kts 226°
2026-05-09 17:38 41.44417 -71.74144 36376 ft 398 kts 226°
2026-05-09 17:38 41.42287 -71.76506 35766 ft 397 kts 226°
2026-05-09 17:39 41.38050 -71.81190 34596 ft 395 kts 226°
2026-05-09 17:39 41.35938 -71.83521 34025 ft 393 kts 226°
2026-05-09 17:39 41.33833 -71.85846 33483 ft 392 kts 226°
2026-05-09 17:39 41.31767 -71.88124 32953 ft 390 kts 226°
2026-05-09 17:40 41.29683 -71.90415 32415 ft 387 kts 226°
2026-05-09 17:40 41.27611 -71.92693 31876 ft 385 kts 225°
2026-05-09 17:40 41.25552 -71.94953 31335 ft 382 kts 225°
2026-05-09 17:40 41.23504 -71.97201 30808 ft 379 kts 225°
2026-05-09 17:41 41.21478 -71.99424 30273 ft 377 kts 225°
2026-05-09 17:41 41.19464 -72.01633 29754 ft 374 kts 225°
2026-05-09 17:41 41.17461 -72.03828 29200 ft 372 kts 225°
2026-05-09 17:41 41.15472 -72.06005 28677 ft 369 kts 225°
2026-05-09 17:42 41.13498 -72.08163 28147 ft 367 kts 225°
2026-05-09 17:42 41.11549 -72.10326 27618 ft 360 kts 228°
2026-05-09 17:42 41.09985 -72.12853 27103 ft 351 kts 241°
2026-05-09 17:42 41.08930 -72.15739 26588 ft 346 kts 251°
2026-05-09 17:43 41.08172 -72.18745 26084 ft 343 kts 253°
2026-05-09 17:43 41.07449 -72.21754 25576 ft 342 kts 253°
2026-05-09 17:43 41.06733 -72.24747 25067 ft 340 kts 253°
2026-05-09 17:43 41.06025 -72.27686 24565 ft 338 kts 253°
2026-05-09 17:44 41.05303 -72.30648 24084 ft 337 kts 253°
2026-05-09 17:44 41.04579 -72.33593 23584 ft 335 kts 253°
2026-05-09 17:44 41.03854 -72.36521 23098 ft 333 kts 252°
2026-05-09 17:44 41.03132 -72.39426 22618 ft 331 kts 252°
2026-05-09 17:45 41.02411 -72.42323 22144 ft 329 kts 252°
2026-05-09 17:45 41.01702 -72.45161 21674 ft 328 kts 252°
2026-05-09 17:45 41.00978 -72.48057 21198 ft 326 kts 252°
2026-05-09 17:45 41.00266 -72.50904 20729 ft 325 kts 252°
2026-05-09 17:46 40.99565 -72.53701 20267 ft 324 kts 252°
2026-05-09 17:46 40.98848 -72.56558 19796 ft 323 kts 252°
2026-05-09 17:46 40.98151 -72.59329 19329 ft 318 kts 252°
2026-05-09 17:46 40.97468 -72.62041 18406 ft 306 kts 252°
2026-05-09 17:47 40.96798 -72.64701 17169 ft 305 kts 252°
2026-05-09 17:47 40.96129 -72.67358 15925 ft 303 kts 252°
2026-05-09 17:47 40.95468 -72.69980 15097 ft 292 kts 251°
2026-05-09 17:47 40.94839 -72.72476 14724 ft 286 kts 251°
2026-05-09 17:48 40.94411 -72.74165 14452 ft 286 kts 251°
2026-05-09 17:48 40.93777 -72.76669 14053 ft 290 kts 251°
2026-05-09 17:48 40.93134 -72.79200 13646 ft 296 kts 252°
2026-05-09 17:48 40.92614 -72.81840 13220 ft 297 kts 256°
2026-05-09 17:49 40.92192 -72.84507 12789 ft 295 kts 257°
2026-05-09 17:49 40.91790 -72.87160 12361 ft 293 kts 257°
2026-05-09 17:49 40.91388 -72.89781 11945 ft 291 kts 257°
2026-05-09 17:49 40.90990 -72.92402 11529 ft 290 kts 256°
2026-05-09 17:50 40.90592 -72.95013 11090 ft 290 kts 256°
2026-05-09 17:50 40.89804 -73.00160 10438 ft 268 kts 256°
2026-05-09 17:50 40.89454 -73.02445 10278 ft 240 kts 255°
2026-05-09 17:51 40.89138 -73.04505 10170 ft 217 kts 255°
2026-05-09 17:51 40.88821 -73.06522 10135 ft 238 kts 255°
2026-05-09 17:51 40.88466 -73.08748 9997 ft 254 kts 255°
2026-05-09 17:51 40.88101 -73.11056 9663 ft 259 kts 255°
2026-05-09 17:52 40.87733 -73.13395 9340 ft 259 kts 255°
2026-05-09 17:52 40.87373 -73.15684 9018 ft 257 kts 254°
2026-05-09 17:52 40.87014 -73.17971 8687 ft 250 kts 254°
2026-05-09 17:52 40.86671 -73.20168 8374 ft 238 kts 254°
2026-05-09 17:53 40.86338 -73.22272 8087 ft 232 kts 253°
2026-05-09 17:53 40.86004 -73.24375 7812 ft 235 kts 253°
2026-05-09 17:53 40.85661 -73.26517 7522 ft 241 kts 253°
2026-05-09 17:53 40.85321 -73.28658 7207 ft 237 kts 253°
2026-05-09 17:54 40.84995 -73.30733 6925 ft 223 kts 253°
2026-05-09 17:54 40.84688 -73.32678 6636 ft 209 kts 253°
2026-05-09 17:54 40.84398 -73.34517 6389 ft 202 kts 253°
2026-05-09 17:54 40.84102 -73.36359 6174 ft 208 kts 252°
2026-05-09 17:55 40.83801 -73.38222 5918 ft 211 kts 253°
2026-05-09 17:55 40.83505 -73.40112 5650 ft 209 kts 253°
2026-05-09 17:55 40.83212 -73.41987 5389 ft 208 kts 253°
2026-05-09 17:55 40.82923 -73.43840 5141 ft 205 kts 253°
2026-05-09 17:56 40.82637 -73.45673 4889 ft 203 kts 253°
2026-05-09 17:56 40.82355 -73.47493 4651 ft 201 kts 253°
2026-05-09 17:56 40.82078 -73.49279 4402 ft 198 kts 253°
2026-05-09 17:57 40.81529 -73.52849 3935 ft 199 kts 253°
2026-05-09 17:57 40.81260 -73.54619 3735 ft 194 kts 253°
2026-05-09 17:57 40.81003 -73.56338 3559 ft 187 kts 253°
2026-05-09 17:57 40.80759 -73.57993 3431 ft 179 kts 253°
2026-05-09 17:58 40.80523 -73.59597 3362 ft 180 kts 253°
2026-05-09 17:58 40.80279 -73.61215 3281 ft 178 kts 253°
2026-05-09 17:58 40.79846 -73.62643 3171 ft 163 kts 224°
2026-05-09 17:58 40.79001 -73.63590 3153 ft 165 kts 217°
2026-05-09 17:59 40.78083 -73.64530 3007 ft 169 kts 217°
2026-05-09 17:59 40.77147 -73.65464 2828 ft 167 kts 214°
2026-05-09 17:59 40.76186 -73.66304 2630 ft 164 kts 211°
2026-05-09 17:59 40.75213 -73.67091 2426 ft 166 kts 210°
2026-05-09 18:00 40.74204 -73.67888 2212 ft 170 kts 210°
2026-05-09 18:00 40.73188 -73.68688 1994 ft 170 kts 210°
2026-05-09 18:00 40.72177 -73.69482 1774 ft 166 kts 210°
2026-05-09 18:00 40.71218 -73.70236 1539 ft 155 kts 210°
2026-05-09 18:01 40.70307 -73.70951 1342 ft 153 kts 210°
2026-05-09 18:01 40.69395 -73.71667 1135 ft 150 kts 211°
2026-05-09 18:01 40.68811 -73.72126 1013 ft 144 kts 211°
2026-05-09 18:01 40.68654 -73.72249 985 ft 142 kts 211°
2026-05-09 18:02 40.67825 -73.72900 797 ft 136 kts 211°
2026-05-09 18:02 40.67021 -73.73529 636 ft 137 kts 211°
2026-05-09 18:02 40.66207 -73.74167 431 ft 134 kts 211°
2026-05-09 18:02 40.65414 -73.74794 251 ft 133 kts 212°
2026-05-09 18:03 40.64607 -73.75424 106 ft 137 kts 211°
2026-05-09 18:03 40.63806 -73.76051 23 ft 125 kts 210°
2026-05-09 18:03 40.63213 -73.76513 24 ft 66 kts 211°
2026-05-09 18:03 40.62876 -73.76777 23 ft 44 kts 211°
2026-05-09 18:04 40.62702 -73.76914 25 ft 22 kts 211°
2026-05-09 18:04 40.62594 -73.77015 25 ft 16 kts 234°
2026-05-09 18:04 40.62586 -73.77163 22 ft 17 kts 287°
2026-05-09 18:04 40.62682 -73.77249 21 ft 18 kts 346°
2026-05-09 18:05 40.62794 -73.77205 21 ft 18 kts 30°
2026-05-09 18:05 40.62883 -73.77135 21 ft 13 kts 30°
2026-05-09 18:05 40.62963 -73.77092 21 ft 13 kts 347°
2026-05-09 18:05 40.63024 -73.77181 21 ft 14 kts 301°
2026-05-09 18:06 40.63073 -73.77287 21 ft 14 kts 301°
2026-05-09 18:06 40.63121 -73.77394 21 ft 14 kts 301°
2026-05-09 18:06 40.63168 -73.77497 21 ft 10 kts 301°
2026-05-09 18:06 40.63200 -73.77568 22 ft 4 kts 301°
2026-05-09 18:07 40.63213 -73.77595 22 ft 3 kts 301°
2026-05-09 18:07 40.63213 -73.77597 22 ft 0 kts 301°
2026-05-09 18:07 40.63223 -73.77618 23 ft 7 kts 301°
2026-05-09 18:07 40.63268 -73.77717 26 ft 17 kts 301°
2026-05-09 18:08 40.63330 -73.77855 25 ft 20 kts 300°
2026-05-09 18:08 40.63396 -73.78009 21 ft 18 kts 299°
2026-05-09 18:08 40.63458 -73.78150 25 ft 18 kts 301°
2026-05-09 18:08 40.63523 -73.78291 24 ft 18 kts 301°
2026-05-09 18:09 40.63579 -73.78415 21 ft 16 kts 301°
2026-05-09 18:09 40.63635 -73.78537 26 ft 16 kts 300°
2026-05-09 18:09 40.63690 -73.78660 21 ft 16 kts 300°
2026-05-09 18:09 40.63746 -73.78782 26 ft 16 kts 300°
2026-05-09 18:10 40.63801 -73.78905 24 ft 16 kts 301°
2026-05-09 18:10 40.63838 -73.78986 23 ft 16 kts 301°
2026-05-09 18:10 40.63913 -73.79150 21 ft 16 kts 300°
2026-05-09 18:10 40.63967 -73.79273 21 ft 16 kts 300°
2026-05-09 18:11 40.64023 -73.79395 21 ft 16 kts 301°
2026-05-09 18:11 40.64093 -73.79493 21 ft 15 kts 335°
2026-05-09 18:11 40.64197 -73.79504 24 ft 15 kts
2026-05-09 18:11 40.64305 -73.79495 24 ft 16 kts
2026-05-09 18:12 40.64418 -73.79494 24 ft 16 kts 356°
2026-05-09 18:12 40.64532 -73.79507 24 ft 16 kts 353°
2026-05-09 18:12 40.64637 -73.79562 21 ft 16 kts 326°
2026-05-09 18:12 40.64731 -73.79647 25 ft 16 kts 326°
2026-05-09 18:13 40.64834 -73.79704 23 ft 16 kts 354°
2026-05-09 18:13 40.64950 -73.79704 22 ft 16 kts
2026-05-09 18:13 40.65051 -73.79648 21 ft 16 kts 46°
2026-05-09 18:13 40.65115 -73.79523 21 ft 16 kts 60°
2026-05-09 18:14 40.65171 -73.79392 25 ft 16 kts 60°
2026-05-09 18:14 40.65208 -73.79251 21 ft 16 kts 89°
2026-05-09 18:14 40.65181 -73.79105 21 ft 16 kts 107°
2026-05-09 18:14 40.65152 -73.78986 24 ft 11 kts 105°
2026-05-09 18:15 40.65104 -73.78917 24 ft 11 kts 174°
2026-05-09 18:15 40.65033 -73.78941 24 ft 6 kts 199°
2026-05-09 18:15 40.64989 -73.78960 21 ft 5 kts 198°
2026-05-09 18:15 40.64964 -73.78971 21 ft 3 kts 198°
2026-05-09 18:16 40.64947 -73.78978 21 ft 0 kts 199°
2026-05-09 18:16 40.64940 -73.78982 21 ft 2 kts 199°
2026-05-09 18:16 40.64937 -73.78983 21 ft 0 kts 199°